Regional Weather Roundup
Issued by NWS

Home | Current Version | Previous Version | Graphics & Text | Print | Product List | Glossary On
Versions: 1 2 3 4 5 6 7 8 9 10 11 12 13 14 15 16 17 18 19 20 21 22 23 24 25 26 27 28 29 30 31 32 33 34 35 36 37 38 39 40 41 42 43 44 45 46 47 48 49 50
000
ASUS43 KMPX 300301
RWRMN
WEATHER ROUNDUP FOR MINNESOTA
NATIONAL WEATHER SERVICE TWIN CITIES/CHANHASSEN MN
1000 PM CDT WED OCT 29 2014


NOTE: "FAIR" INDICATES FEW OR NO CLOUDS BELOW 12,000 FEET WITH NO
SIGNIFICANT WEATHER AND/OR OBSTRUCTIONS TO VISIBILITY. N/A MEANS
CURRENT SKY AND/OR WEATHER CONDITIONS ARE NOT AVAILABLE.

MNZ060>063-068>070-300400-
   Twin Cities Metro

CITY           SKY/WX    TMP DP  RH WIND       PRES   REMARKS
TWIN CITIES    CLOUDY    38  32  79 CALM      30.09F
ST PAUL        MOCLDY    37  33  85 CALM      30.11S
CRYSTAL        MOCLDY    35  31  85 CALM      30.08S
BLAINE         MOCLDY    36  34  93 CALM      30.09S
LAKEVILLE      MOCLDY    30  30 100 CALM      30.09S
EDEN PRAIRIE   MOCLDY    38  32  79 E3        30.08S
SOUTH ST PAUL  MOCLDY    36  32  85 CALM      30.10S
LAKE ELMO      FAIR      32  30  93 CALM      30.10S
$$
MNZ001>005-007-008-013>017-022>024-027-028-300400-
   Northwest Minnesota

CITY           SKY/WX    TMP DP  RH WIND       PRES   REMARKS
BEMIDJI        CLOUDY    33  31  90 CALM      30.03F
HALLOCK        MOCLDY    37  32  81 SE7       30.01S
ROSEAU         MOCLDY    34  28  80 CALM      30.04S
WARROAD        CLOUDY    36  30  80 CALM      30.05S
THIEF RVR FALL CLOUDY    36  30  80 SE8       30.02S
CROOKSTON      CLOUDY    37  30  75 SE8       30.02F
FOSSTON        CLOUDY    30  30 100 SE5       30.03F WCI  25
DETROIT LAKES  CLOUDY    37  32  81 S7        30.03S
MOORHEAD       CLOUDY    41  34  75 SE10      30.02S
PARK RAPIDS    CLOUDY    34  29  82 SE3       30.04R
MAHNOMEN       CLOUDY    34  31  86 SE7       30.02S WCI  28
$$
MNZ006-009>011-018-025>026-300400-
   North Central Minnesota

CITY           SKY/WX    TMP DP  RH WIND       PRES   REMARKS
BAUDETTE       CLOUDY    35  32  88 SW3       30.04S
FLAG ISLAND    DRIZZLE   36  34  93 W7        30.03S
INTL FALLS     CLOUDY    35  34  96 W3        30.04S FOG
WASKISH        CLOUDY    36  32  87 CALM      30.04F
BIG FORK       CLOUDY    36  34  93 CALM      30.05S
LONGVILLE      CLOUDY    36  30  80 W3        30.05S
GRAND RAPIDS   CLOUDY    36  30  80 SW3       30.05S
CRANE LAKE     CLOUDY    36  36 100 CALM      30.06S
ORR            CLOUDY    36  32  87 CALM      30.03R
COOK           CLOUDY    36  34  93 SW3       30.05S
WALKER         CLOUDY    35  29  81 CALM      30.05R
$$
MNZ012-019>021-037-300400-
   Northeast Minnesota

CITY           SKY/WX    TMP DP  RH WIND       PRES   REMARKS
DULUTH         CLOUDY    37  31  78 SW7       30.05S
ELY            CLOUDY    36  34  93 CALM      30.03S
HIBBING        CLOUDY    36  31  82 SW5       30.05S
EVELETH        CLOUDY    36  34  93 SW6       30.06S
DULUTH HARBOR  CLOUDY    41  36  81 W7        30.09S
TWO HARBORS    CLOUDY    41 N/A N/A W3        30.05R
SILVER BAY     CLOUDY    41  36  81 SW3       30.03S
GRAND MARAIS     N/A     40  35  83 CALM      30.05R
G MARAIS ARPRT CLOUDY    36  30  80 CALM      30.02S
$$
MNZ029>031-032-039>041-046>048-054>057-064-300400-
   West Central Minnesota

CITY           SKY/WX    TMP DP  RH WIND       PRES   REMARKS
FERGUS FALLS   CLOUDY    37  30  75 SE8       30.04S
WHEATON        CLOUDY    37  30  75 SE10      30.03S
MORRIS         CLOUDY    37  34  87 SE8       30.02F
ALEXANDRIA     CLOUDY    36  31  82 S6        30.05R
ELBOW LAKE     CLOUDY    37  32  82 SE8       30.03R
WADENA         CLOUDY    34  30  86 CALM      30.04R
GLENWOOD       CLOUDY    36  32  87 SE5       30.04S
APPLETON       CLOUDY    39  32  75 SE8       30.03F
BENSON         CLOUDY    37  32  81 SE5       30.04F
ORTONVILLE     CLOUDY    39  32  75 SE6       30.02F
MADISON        CLOUDY    43  36  75 E6        30.02F
WILLMAR        FAIR      37  32  81 E6        30.07S
$$
MNZ033>034-036-042>043-049>051-058-059-300400-
   Central Minnesota

CITY           SKY/WX    TMP DP  RH WIND       PRES   REMARKS
ST CLOUD       MOCLDY    35  31  85 SE3       30.07F
SAUK CENTRE    MOCLDY    34  32  94 CALM      30.06R
PAYNESVILLE    CLOUDY    32  31  97 E3        30.06S
AITKIN         CLOUDY    39  32  75 CALM      30.05R
PINE RIVER     CLOUDY    36  30  80 CALM      30.08S
BRAINERD       CLOUDY    36  31  82 CALM      30.06S
STAPLES        CLOUDY    36  30  80 CALM      30.05S
LONG PRAIRIE   MOCLDY    34  32  93 CALM      30.05S
LITTLE FALLS   CLOUDY    34  30  86 CALM      30.06S
LITCHFIELD     MOCLDY    36  34  93 CALM      30.07S
BUFFALO        MOCLDY    34  30  86 CALM      30.09S
MAPLE LAKE     MOCLDY    35  32  90 CALM      30.08F
$$
MNZ037-044-045-052-053-300400-
   East Central Minnesota

CITY           SKY/WX    TMP DP  RH WIND       PRES   REMARKS
PRINCETON      MOCLDY    36  32  87 CALM      30.08F
MORA           MOCLDY    36  32  87 CALM      30.10S
CAMBRIDGE      MOCLDY    39  30  70 CALM      30.07S
RUSH CITY      CLOUDY    38  32  79 CALM      30.09S
MOOSE LAKE     CLOUDY    36  32  87 S3        30.06S
HINCKLEY       CLOUDY    37  34  87 CALM      30.08S
CLOQUET        CLOUDY    37  30  75 SW3       30.06S
MCGREGOR       CLOUDY    36  32  87 CALM      30.07R
$$
MNZ071>073-080-081-089-090-097-098-300400-
   Southwest Minnesota

CITY           SKY/WX    TMP DP  RH WIND       PRES   REMARKS
MONTEVIDEO     CLOUDY    37  34  87 S7        30.05F
GRANITE FALLS  CLOUDY    39  31  73 E3        30.06S
CANBY          CLOUDY    40  35  81 CALM      30.03S
MARSHALL       CLOUDY    41  28  60 S5        30.03S
REDWOOD FALLS  CLOUDY    39  29  67 SE5       30.06R
OLIVIA         CLOUDY    39  32  75 SE5       30.05S
PIPESTONE      CLOUDY    43  30  61 S6        30.02S
WINDOM         CLOUDY    39  30  70 CALM      30.05F
WORTHINGTON    CLOUDY    41  28  60 S5        30.05F
JACKSON        CLOUDY    39  30  70 S6        30.06F
TRACY          CLOUDY    44  32  62 S5        30.04F
SLAYTON        CLOUDY    40  30  69 CALM      30.04F
$$
MNZ065>067-074>077-082>085-091>093-300400-
   South Central Minnesota

CITY           SKY/WX    TMP DP  RH WIND       PRES   REMARKS
MANKATO        CLOUDY    37  28  70 SE7       30.08S
NEW ULM        CLOUDY    39  34  81 SE5       30.06S
ST JAMES       MOCLDY    41  30  65 S5        30.07F
FAIRMONT       MOCLDY    36  25  64 S5        30.07F
GLENCOE        CLOUDY    36  32  87 CALM      30.07S
FARIBAULT      MOCLDY    32  30  93 CALM      30.09S
OWATONNA       MOCLDY    34  30  86 SE3       30.09S
WASECA         CLOUDY    34  28  80 SE6       30.10S WCI  29
ALBERT LEA     MOCLDY    36  32  87 SE3       30.09S
$$
MNZ078>079-086>088-094>096-300400-
   Southeast Minnesota

CITY           SKY/WX    TMP DP  RH WIND       PRES   REMARKS
ROCHESTER      MOCLDY    32  29  88 S5        30.11R WCI  27
RED WING         N/A     34  30  86 CALM      30.10S
STANTON        PTCLDY    32  29  89 CALM      30.08S
DODGE CENTER   MOCLDY    34  30  86 SE3       30.09S
WINONA         MOCLDY    36  32  87 CALM      30.13R
AUSTIN         MOCLDY    32  28  86 SE3       30.09F
PRESTON        MOCLDY    35  30  83 SW3       30.11R
$$
ABBREVIATIONS USED IN REMARKS
   TC - TEMPERATURES IN CELSIUS
  WCI - WIND CHILL INDEX
   HX - HEAT INDEX
  VSB - VISIBILITY
$$



USA.gov is the U.S. government's official web portal to all federal, state and local government web resources and services.